| time (UTC) | temp C | wind direction | speed KPH | gust KPH | rain 1hr cm | rain 24hr cm | rain mn cm | humidity % | barometer mb |
| 20260504185606 | 27 | 170 | 3.2 | 12.9 | 0.00 | 0.00 | 0.00 | 68 | 1013.7 |
| 20260504185100 | 27 | 188 | 3.2 | 16.1 | 0.00 | 0.00 | 0.00 | 70 | 1013.7 |
| 20260504184554 | 27 | 181 | 3.2 | 16.1 | 0.00 | 0.00 | 0.00 | 69 | 1013.8 |
| 20260504184048 | 27 | 189 | 3.2 | 12.9 | 0.00 | 0.00 | 0.00 | 70 | 1014.1 |
| 20260504183543 | 27 | 206 | 3.2 | 17.7 | 0.00 | 0.00 | 0.00 | 70 | 1014.0 |
| 20260504183036 | 27 | 180 | 3.2 | 17.7 | 0.00 | 0.00 | 0.00 | 69 | 1013.9 |
| 20260504182530 | 27 | 197 | 3.2 | 17.7 | 0.00 | 0.00 | 0.00 | 69 | 1014.1 |
| 20260504182024 | 27 | 209 | 4.8 | 20.9 | 0.00 | 0.00 | 0.00 | 69 | 1014.1 |
| 20260504181518 | 26 | 134 | 4.8 | 20.9 | 0.00 | 0.00 | 0.00 | 70 | 1014.1 |
| 20260504181012 | 26 | 216 | 3.2 | 17.7 | 0.00 | 0.00 | 0.00 | 71 | 1014.2 |
| 20260504180506 | 26 | 152 | 3.2 | 17.7 | 0.00 | 0.00 | 0.00 | 68 | 1014.2 |
| 20260504180000 | 26 | 174 | 4.8 | 14.5 | 0.00 | 0.00 | 0.00 | 70 | 1014.2 |
| 20260504175457 | 26 | 119 | 3.2 | 17.7 | 0.00 | 0.00 | 0.00 | 70 | 1014.2 |
| 20260504175450 | 26 | 210 | 3.2 | 17.7 | 0.00 | 0.00 | 0.00 | 70 | 1014.5 |
| 20260504174441 | 26 | 139 | 3.2 | 12.9 | 0.00 | 0.00 | 0.00 | 68 | 1014.6 |
| 20260504173936 | 26 | 138 | 3.2 | 16.1 | 0.00 | 0.00 | 0.00 | 71 | 1014.6 |
| 20260504173430 | 26 | 206 | 3.2 | 16.1 | 0.00 | 0.00 | 0.00 | 70 | 1014.7 |
| 20260504172924 | 26 | 157 | 3.2 | 16.1 | 0.00 | 0.00 | 0.00 | 72 | 1014.8 |
| 20260504172418 | 26 | 148 | 6.4 | 19.3 | 0.00 | 0.00 | 0.00 | 69 | 1014.5 |
| 20260504171912 | 26 | 174 | 4.8 | 19.3 | 0.00 | 0.00 | 0.00 | 71 | 1014.7 |
| 20260504171406 | 26 | 143 | 3.2 | 16.1 | 0.00 | 0.00 | 0.00 | 72 | 1014.9 |
| 20260504170900 | 25 | 198 | 3.2 | 16.1 | 0.00 | 0.00 | 0.00 | 72 | 1015.1 |
| 20260504170354 | 25 | 204 | 3.2 | 16.1 | 0.00 | 0.00 | 0.00 | 71 | 1015.1 |
| 20260504150826 | 23 | 178 | 4.8 | 19.3 | 0.00 | 0.00 | 0.00 | 75 | 1015.7 |
| 20260504150326 | 23 | 144 | 4.8 | 20.9 | 0.00 | 0.00 | 0.00 | 75 | 1015.7 |
| 20260504141322 | 22 | 128 | 4.8 | 14.5 | 0.00 | 0.00 | 0.00 | 76 | 1015.8 |
| 20260504140822 | 21 | 150 | 3.2 | 14.5 | 0.00 | 0.00 | 0.00 | 76 | 1015.7 |
| 20260504140319 | 21 | 113 | 3.2 | 11.3 | 0.00 | 0.00 | 0.00 | 79 | 1015.7 |
| 20260504130814 | 18 | 111 | 0.0 | 3.2 | 0.00 | 0.00 | 0.00 | 83 | 1015.8 |
| 20260504130545 | 18 | 112 | 0.0 | 3.2 | 0.00 | 0.00 | 0.00 | 83 | 1015.7 |
| 20260504120309 | 15 | 142 | 0.0 | 0.0 | 0.00 | 0.00 | 0.00 | 89 | 1015.5 |
| 20260504110714 | 15 | 141 | 0.0 | 0.0 | 0.00 | 0.00 | 0.00 | 88 | 1015.3 |
| 20260504110208 | 15 | 141 | 0.0 | 0.0 | 0.00 | 0.00 | 0.00 | 88 | 1015.3 |
| 20260504100139 | 15 | 141 | 0.0 | 0.0 | 0.00 | 0.00 | 0.00 | 86 | 1015.5 |
| 20260504090120 | 15 | 143 | 0.0 | 0.0 | 0.00 | 0.00 | 0.00 | 86 | 1016.1 |
| 20260504081525 | 15 | 143 | 0.0 | 3.2 | 0.00 | 0.00 | 0.00 | 85 | 1016.2 |
| 20260504081019 | 15 | 144 | 0.0 | 3.2 | 0.00 | 0.00 | 0.00 | 86 | 1016.2 |
| 20260504080514 | 15 | 144 | 0.0 | 1.6 | 0.00 | 0.00 | 0.00 | 86 | 1016.3 |
| 20260504070401 | 15 | 146 | 0.0 | 0.0 | 0.00 | 0.00 | 0.00 | 85 | 1017.5 |
| 20260504060249 | 16 | 145 | 0.0 | 1.6 | 0.00 | 0.00 | 0.00 | 84 | 1018.1 |
| 20260504050723 | 16 | 152 | 0.0 | 1.6 | 0.00 | 0.00 | 0.00 | 81 | 1018.3 |
| 20260504050222 | 16 | 152 | 0.0 | 0.0 | 0.00 | 0.00 | 0.00 | 81 | 1018.4 |
| 20260504045725 | 17 | 152 | 0.0 | 0.0 | 0.00 | 0.00 | 0.00 | 80 | 1018.5 |
| 20260504045720 | 17 | 152 | 0.0 | 0.0 | 0.00 | 0.00 | 0.00 | 81 | 1018.5 |
| 20260504044721 | 17 | 152 | 0.0 | 0.0 | 0.00 | 0.00 | 0.00 | 80 | 1018.4 |
| 20260504044220 | 17 | 152 | 0.0 | 0.0 | 0.00 | 0.00 | 0.00 | 79 | 1018.5 |
| 20260504043721 | 17 | 152 | 0.0 | 0.0 | 0.00 | 0.00 | 0.00 | 79 | 1018.4 |
| 20260504043218 | 17 | 0 | 0.0 | 0.0 | 0.00 | 0.00 | 0.00 | 77 | 1018.4 |
| 20260504042717 | 17 | 153 | 0.0 | 3.2 | 0.00 | 0.00 | 0.00 | 77 | 1018.5 |
| 20260504042217 | 17 | 153 | 0.0 | 3.2 | 0.00 | 0.00 | 0.00 | 77 | 1018.6 |
| 20260504041717 | 18 | 152 | 0.0 | 3.2 | 0.00 | 0.00 | 0.00 | 76 | 1018.5 |
| 20260504041450 | 18 | 0 | 0.0 | 1.6 | 0.00 | 0.00 | 0.00 | 75 | 1018.6 |
| 20260504040717 | 18 | 0 | 0.0 | 1.6 | 0.00 | 0.00 | 0.00 | 75 | 1018.6 |
| 20260504040448 | 18 | 0 | 0.0 | 1.6 | 0.00 | 0.00 | 0.00 | 74 | 1018.8 |
| 20260504035721 | 18 | 0 | 0.0 | 4.8 | 0.00 | 0.00 | 0.00 | 73 | 1018.6 |
| 20260504035717 | 18 | 0 | 0.0 | 3.2 | 0.00 | 0.00 | 0.00 | 73 | 1018.6 |
| 20260504034949 | 18 | 150 | 0.0 | 4.8 | 0.00 | 0.00 | 0.00 | 73 | 1018.6 |
| 20260504034217 | 18 | 0 | 0.0 | 4.8 | 0.00 | 0.00 | 0.00 | 72 | 1018.6 |
| 20260504033718 | 19 | 138 | 1.6 | 6.4 | 0.00 | 0.00 | 0.00 | 71 | 1018.5 |
| 20260504033217 | 19 | 143 | 1.6 | 6.4 | 0.00 | 0.00 | 0.00 | 71 | 1018.6 |
| 20260504032947 | 19 | 140 | 1.6 | 8.0 | 0.00 | 0.00 | 0.00 | 70 | 1018.7 |
| 20260504032216 | 19 | 144 | 1.6 | 12.9 | 0.00 | 0.00 | 0.00 | 70 | 1018.6 |
| 20260504031718 | 19 | 136 | 1.6 | 12.9 | 0.00 | 0.00 | 0.00 | 70 | 1018.5 |
| 20260504031218 | 19 | 144 | 0.0 | 8.0 | 0.00 | 0.00 | 0.00 | 69 | 1018.5 |
| 20260504030718 | 20 | 136 | 1.6 | 6.4 | 0.00 | 0.00 | 0.00 | 69 | 1018.3 |
| 20260504030450 | 20 | 135 | 1.6 | 8.0 | 0.00 | 0.00 | 0.00 | 69 | 1018.3 |
| 20260504025716 | 20 | 130 | 1.6 | 8.0 | 0.00 | 0.00 | 0.00 | 68 | 1018.3 |
| 20260504025218 | 20 | 144 | 1.6 | 8.0 | 0.00 | 0.00 | 0.00 | 68 | 1018.4 |
| 20260504024718 | 20 | 146 | 1.6 | 9.7 | 0.00 | 0.00 | 0.00 | 67 | 1018.3 |
| 20260504024217 | 20 | 136 | 1.6 | 9.7 | 0.00 | 0.00 | 0.00 | 67 | 1018.2 |
| 20260504023716 | 20 | 133 | 1.6 | 4.8 | 0.00 | 0.00 | 0.00 | 66 | 1018.2 |
| 20260504023217 | 20 | 138 | 1.6 | 9.7 | 0.00 | 0.00 | 0.00 | 67 | 1018.2 |
| 20260504022716 | 20 | 142 | 0.0 | 9.7 | 0.00 | 0.00 | 0.00 | 66 | 1018.1 |
| 20260504022217 | 20 | 135 | 1.6 | 6.4 | 0.00 | 0.00 | 0.00 | 66 | 1018.1 |
| 20260504021710 | 20 | 147 | 1.6 | 9.7 | 0.00 | 0.00 | 0.00 | 65 | 1018.0 |
| 20260504021205 | 20 | 141 | 1.6 | 8.0 | 0.00 | 0.00 | 0.00 | 65 | 1018.1 |
| 20260504020929 | 20 | 138 | 1.6 | 4.8 | 0.00 | 0.00 | 0.00 | 64 | 1017.9 |
| 20260504020153 | 21 | 137 | 1.6 | 3.2 | 0.00 | 0.00 | 0.00 | 64 | 1017.9 |
| 20260504015646 | 21 | 136 | 1.6 | 4.8 | 0.00 | 0.00 | 0.00 | 64 | 1017.9 |
| 20260504015140 | 21 | 146 | 1.6 | 8.0 | 0.00 | 0.00 | 0.00 | 63 | 1017.9 |
| 20260504014905 | 21 | 130 | 1.6 | 8.0 | 0.00 | 0.00 | 0.00 | 63 | 1017.9 |
| 20260504014129 | 21 | 144 | 1.6 | 9.7 | 0.00 | 0.00 | 0.00 | 61 | 1017.7 |
| 20260504013623 | 21 | 134 | 1.6 | 9.7 | 0.00 | 0.00 | 0.00 | 61 | 1017.7 |
| 20260504013121 | 21 | 155 | 3.2 | 12.9 | 0.00 | 0.00 | 0.00 | 61 | 1017.8 |
| 20260504012618 | 21 | 138 | 1.6 | 12.9 | 0.00 | 0.00 | 0.00 | 60 | 1017.8 |
| 20260504012118 | 21 | 143 | 1.6 | 11.3 | 0.00 | 0.00 | 0.00 | 61 | 1017.7 |
| 20260504011624 | 22 | 116 | 3.2 | 14.5 | 0.00 | 0.00 | 0.00 | 59 | 1017.6 |
| 20260504011619 | 22 | 148 | 3.2 | 12.9 | 0.00 | 0.00 | 0.00 | 60 | 1017.7 |
| 20260504010618 | 22 | 133 | 3.2 | 16.1 | 0.00 | 0.00 | 0.00 | 60 | 1017.7 |
| 20260504010117 | 22 | 142 | 1.6 | 16.1 | 0.00 | 0.00 | 0.00 | 60 | 1017.6 |
| 20260504005616 | 22 | 95 | 1.6 | 14.5 | 0.00 | 0.00 | 0.00 | 59 | 1017.7 |
| 20260504005115 | 22 | 126 | 1.6 | 12.9 | 0.00 | 0.00 | 0.00 | 59 | 1017.6 |
| 20260504004614 | 22 | 135 | 1.6 | 11.3 | 0.00 | 0.00 | 0.00 | 58 | 1017.6 |
| 20260504004114 | 23 | 145 | 1.6 | 11.3 | 0.00 | 0.00 | 0.00 | 58 | 1017.6 |
| 20260504003614 | 23 | 122 | 3.2 | 19.3 | 0.00 | 0.00 | 0.00 | 57 | 1017.5 |
| 20260504003112 | 23 | 144 | 4.8 | 19.3 | 0.00 | 0.00 | 0.00 | 56 | 1017.8 |
| 20260504002612 | 23 | 157 | 3.2 | 16.1 | 0.00 | 0.00 | 0.00 | 56 | 1017.8 |
| 20260504002112 | 23 | 121 | 3.2 | 14.5 | 0.00 | 0.00 | 0.00 | 56 | 1017.6 |
| 20260504001613 | 23 | 136 | 3.2 | 14.5 | 0.00 | 0.00 | 0.00 | 56 | 1017.6 |
| 20260504001112 | 23 | 148 | 3.2 | 11.3 | 0.00 | 0.00 | 0.00 | 56 | 1017.7 |
| 20260504000607 | 23 | 146 | 1.6 | 11.3 | 0.00 | 0.00 | 0.00 | 54 | 1017.7 |
| 20260504000101 | 24 | 150 | 0.0 | 8.0 | 0.00 | 0.00 | 0.00 | 51 | 1017.7 |
| 20260503235555 | 24 | 184 | 1.6 | 11.3 | 0.00 | 0.00 | 0.00 | 51 | 1017.5 |
| 20260503235049 | 24 | 180 | 1.6 | 11.3 | 0.00 | 0.00 | 0.00 | 50 | 1017.6 |
| 20260503234543 | 24 | 139 | 1.6 | 8.0 | 0.00 | 0.00 | 0.00 | 50 | 1017.6 |
| 20260503234037 | 25 | 200 | 1.6 | 6.4 | 0.00 | 0.00 | 0.00 | 51 | 1017.7 |
| 20260503233530 | 25 | 163 | 1.6 | 9.7 | 0.00 | 0.00 | 0.00 | 48 | 1017.7 |
| 20260503233255 | 25 | 100 | 1.6 | 9.7 | 0.00 | 0.00 | 0.00 | 46 | 1017.7 |
| 20260503232519 | 25 | 140 | 1.6 | 11.3 | 0.00 | 0.00 | 0.00 | 47 | 1017.8 |
| 20260503232243 | 25 | 152 | 1.6 | 11.3 | 0.00 | 0.00 | 0.00 | 46 | 1017.8 |
| 20260503231506 | 25 | 142 | 1.6 | 11.3 | 0.00 | 0.00 | 0.00 | 45 | 1017.9 |
| 20260503231231 | 25 | 166 | 1.6 | 14.5 | 0.00 | 0.00 | 0.00 | 46 | 1018.0 |
| 20260503230455 | 25 | 144 | 1.6 | 16.1 | 0.00 | 0.00 | 0.00 | 47 | 1018.0 |
| 20260503225949 | 25 | 113 | 1.6 | 16.1 | 0.00 | 0.00 | 0.00 | 48 | 1018.0 |
| 20260503225443 | 25 | 144 | 1.6 | 9.7 | 0.00 | 0.00 | 0.00 | 48 | 1017.9 |
| 20260503225209 | 25 | 144 | 1.6 | 9.7 | 0.00 | 0.00 | 0.00 | 49 | 1018.1 |
| 20260503224431 | 26 | 159 | 1.6 | 6.4 | 0.00 | 0.00 | 0.00 | 47 | 1018.1 |
| 20260503223924 | 26 | 123 | 1.6 | 6.4 | 0.00 | 0.00 | 0.00 | 47 | 1018.3 |
| 20260503223419 | 26 | 118 | 3.2 | 14.5 | 0.00 | 0.00 | 0.00 | 47 | 1018.4 |
| 20260503223145 | 26 | 153 | 1.6 | 14.5 | 0.00 | 0.00 | 0.00 | 46 | 1018.4 |
| 20260503222637 | 26 | 81 | 1.6 | 12.9 | 0.00 | 0.00 | 0.00 | 47 | 1018.3 |
| 20260503221901 | 26 | 153 | 1.6 | 8.0 | 0.00 | 0.00 | 0.00 | 50 | 1018.3 |
| 20260503221355 | 26 | 150 | 1.6 | 6.4 | 0.00 | 0.00 | 0.00 | 47 | 1018.5 |
| 20260503220849 | 26 | 163 | 1.6 | 6.4 | 0.00 | 0.00 | 0.00 | 52 | 1018.6 |
| 20260503220343 | 26 | 86 | 1.6 | 8.0 | 0.00 | 0.00 | 0.00 | 48 | 1018.7 |
| 20260503215836 | 26 | 206 | 3.2 | 16.1 | 0.00 | 0.00 | 0.00 | 46 | 1018.7 |
| 20260503215332 | 26 | 143 | 3.2 | 16.1 | 0.00 | 0.00 | 0.00 | 45 | 1018.7 |
| 20260503215327 | 26 | 177 | 1.6 | 8.0 | 0.00 | 0.00 | 0.00 | 48 | 1018.6 |
| 20260503214319 | 26 | 144 | 3.2 | 17.7 | 0.00 | 0.00 | 0.00 | 50 | 1018.7 |
| 20260503214044 | 26 | 155 | 3.2 | 17.7 | 0.00 | 0.00 | 0.00 | 49 | 1018.7 |
| 20260503213307 | 26 | 146 | 1.6 | 9.7 | 0.00 | 0.00 | 0.00 | 48 | 1018.7 |
| 20260503212801 | 26 | 151 | 1.6 | 12.9 | 0.00 | 0.00 | 0.00 | 49 | 1018.8 |
| 20260503212256 | 26 | 136 | 0.0 | 12.9 | 0.00 | 0.00 | 0.00 | 50 | 1019.0 |
| 20260503211749 | 26 | 121 | 1.6 | 11.3 | 0.00 | 0.00 | 0.00 | 45 | 1019.2 |
| 20260503211243 | 26 | 115 | 1.6 | 11.3 | 0.00 | 0.00 | 0.00 | 48 | 1019.2 |
| 20260503211009 | 26 | 143 | 3.2 | 14.5 | 0.00 | 0.00 | 0.00 | 50 | 1019.2 |
| 20260503210230 | 26 | 134 | 1.6 | 14.5 | 0.00 | 0.00 | 0.00 | 52 | 1019.3 |
| 20260503205725 | 26 | 155 | 1.6 | 8.0 | 0.00 | 0.00 | 0.00 | 51 | 1019.2 |
| 20260503205219 | 26 | 156 | 3.2 | 9.7 | 0.00 | 0.00 | 0.00 | 50 | 1019.4 |
| 20260503204713 | 26 | 36 | 3.2 | 11.3 | 0.00 | 0.00 | 0.00 | 52 | 1019.3 |
| 20260503204207 | 26 | 59 | 3.2 | 11.3 | 0.00 | 0.00 | 0.00 | 44 | 1019.4 |
| 20260503203701 | 26 | 139 | 1.6 | 11.3 | 0.00 | 0.00 | 0.00 | 50 | 1019.5 |
| 20260503203154 | 26 | 95 | 1.6 | 11.3 | 0.00 | 0.00 | 0.00 | 52 | 1019.6 |
| 20260503202649 | 26 | 128 | 1.6 | 9.7 | 0.00 | 0.00 | 0.00 | 49 | 1019.7 |
| 20260503202145 | 26 | 99 | 1.6 | 11.3 | 0.00 | 0.00 | 0.00 | 46 | 1019.8 |
| 20260503202140 | 26 | 76 | 1.6 | 12.9 | 0.00 | 0.00 | 0.00 | 46 | 1019.8 |
| 20260503201131 | 26 | 59 | 1.6 | 12.9 | 0.00 | 0.00 | 0.00 | 53 | 1019.9 |
| 20260503200625 | 26 | 106 | 1.6 | 8.0 | 0.00 | 0.00 | 0.00 | 49 | 1020.1 |
| 20260503200118 | 26 | 189 | 1.6 | 11.3 | 0.00 | 0.00 | 0.00 | 52 | 1020.2 |
| 20260503195613 | 26 | 96 | 1.6 | 11.3 | 0.00 | 0.00 | 0.00 | 47 | 1020.4 |
| 20260503195106 | 26 | 48 | 3.2 | 9.7 | 0.00 | 0.00 | 0.00 | 55 | 1020.4 |
| 20260503194601 | 26 | 28 | 4.8 | 12.9 | 0.00 | 0.00 | 0.00 | 51 | 1020.5 |
| 20260503194327 | 26 | 34 | 3.2 | 12.9 | 0.00 | 0.00 | 0.00 | 50 | 1020.5 |
| 20260503193548 | 26 | 115 | 1.6 | 12.9 | 0.00 | 0.00 | 0.00 | 49 | 1020.7 |
| 20260503193043 | 26 | 107 | 0.0 | 6.4 | 0.00 | 0.00 | 0.00 | 52 | 1020.7 |
| 20260503192537 | 25 | 38 | 1.6 | 8.0 | 0.00 | 0.00 | 0.00 | 50 | 1020.8 |
| 20260503192030 | 25 | 119 | 3.2 | 9.7 | 0.00 | 0.00 | 0.00 | 47 | 1020.9 |
| 20260503191525 | 25 | 161 | 3.2 | 11.3 | 0.00 | 0.00 | 0.00 | 52 | 1021.0 |
| 20260503191018 | 25 | 150 | 3.2 | 12.9 | 0.00 | 0.00 | 0.00 | 51 | 1021.1 |
| 20260503190513 | 25 | 97 | 3.2 | 12.9 | 0.00 | 0.00 | 0.00 | 50 | 1021.2 |
| 20260503190007 | 25 | 105 | 3.2 | 12.9 | 0.00 | 0.00 | 0.00 | 48 | 1021.2 |